Location: Fort Frances
(48.6170°N, 93.4170°W)
Time: 13:58:27
(UTC-05:00)

ISS - All Passes

Search period start: 25 October 2014 00:00
Search period end: 03 November 2014 23:00
Orbit: 412 x 416 km, 51.6° (Epoch: 25 October)

Date Brightness Start Highest point End Pass type
(mag) Time Alt. Az. Time Alt. Az. Time Alt. Az.
25 Oct - 12:57:44 10° S 13:00:14 20° SE 13:02:45 10° E daylight
25 Oct - 14:33:14 10° WSW 14:36:35 88° SSE 14:39:56 10° ENE daylight
25 Oct - 16:10:13 10° WNW 16:13:28 48° N 16:16:44 10° ENE daylight
25 Oct - 17:47:04 10° WNW 17:50:25 74° NNE 17:53:46 10° ESE daylight
25 Oct - 19:24:00 10° W 19:26:55 28° SW 19:29:49 10° SSE visible
26 Oct - 12:09:41 10° SSE 12:11:15 13° SE 12:12:48 10° ESE daylight
26 Oct - 13:44:06 10° SW 13:47:24 62° SSE 13:50:43 10° ENE daylight
26 Oct - 15:20:54 10° W 15:24:11 51° N 15:27:28 10° ENE daylight
26 Oct - 16:57:51 10° WNW 17:01:10 59° NNE 17:04:29 10° E daylight
26 Oct - 18:34:38 10° WNW 18:37:49 42° SSW 18:41:00 10° SE visible
27 Oct - 12:55:05 10° SW 12:58:14 41° SSE 13:01:25 10° ENE daylight
27 Oct - 14:31:34 10° W 14:34:53 60° NNW 14:38:12 10° ENE daylight
27 Oct - 16:08:35 10° WNW 16:11:52 51° N 16:15:08 10° E daylight
27 Oct - 17:45:20 10° WNW 17:48:39 63° SSW 17:51:57 10° SE daylight
27 Oct - 19:23:10 10° WSW 19:24:48 13° SW 19:26:26 10° SSW visible
28 Oct - 12:06:13 10° SSW 12:09:05 27° SE 12:11:58 10° E daylight
28 Oct - 13:42:14 10° WSW 13:45:34 75° NNW 13:48:55 10° ENE daylight
28 Oct - 15:19:15 10° WNW 15:22:30 48° N 15:25:46 10° ENE daylight
28 Oct - 16:56:02 10° WNW 16:59:24 89° SSW 17:02:44 10° ESE daylight
28 Oct - 18:33:12 10° W 18:35:45 20° SW 18:38:17 10° S visible
29 Oct - 11:17:39 10° S 11:19:58 18° SE 11:22:18 10° E daylight
29 Oct - 12:52:56 10° WSW 12:56:16 81° SSE 12:59:37 10° ENE daylight
29 Oct - 14:29:52 10° W 14:33:07 48° N 14:36:23 10° ENE daylight
29 Oct - 16:06:44 10° WNW 16:10:04 69° NNE 16:13:24 10° E daylight
29 Oct - 17:43:36 10° W 17:46:36 31° SW 17:49:35 10° SSE daylight
30 Oct - 10:29:49 10° SSE 10:30:53 11° SE 10:31:56 10° ESE daylight
30 Oct - 12:03:42 10° SW 12:06:58 56° SSE 12:10:15 10° ENE daylight
30 Oct - 13:40:26 10° W 13:43:42 53° N 13:47:00 10° ENE daylight
30 Oct - 15:17:23 10° WNW 15:20:41 56° N 15:23:59 10° E daylight
30 Oct - 16:54:09 10° WNW 16:57:22 47° SSW 17:00:35 10° SE daylight
31 Oct - 11:14:36 10° SW 11:17:41 37° SSE 11:20:48 10° ENE daylight
31 Oct - 12:50:58 10° W 12:54:17 63° NNW 12:57:36 10° ENE daylight
31 Oct - 14:27:59 10° WNW 14:31:15 50° N 14:34:31 10° E daylight
31 Oct - 16:04:44 10° WNW 16:08:04 70° SSW 16:11:23 10° ESE daylight
31 Oct - 17:42:19 10° W 17:44:16 15° SW 17:46:13 10° S daylight
01 Nov - 10:25:41 10° SSW 10:28:26 24° SE 10:31:12 10° E daylight
01 Nov - 12:01:31 10° WSW 12:04:51 81° NNW 12:08:12 10° ENE daylight
01 Nov - 13:38:31 10° WNW 13:41:46 47° N 13:45:01 10° ENE daylight
01 Nov - 15:15:19 10° WNW 15:18:40 84° NNE 15:22:01 10° ESE daylight
01 Nov - 16:52:22 10° W 16:55:04 23° SW 16:57:45 10° SSE daylight
02 Nov - 08:37:08 10° S 08:39:12 16° SE 08:41:18 10° E daylight
02 Nov - 10:12:07 10° WSW 10:15:26 74° SSE 10:18:46 10° ENE daylight
02 Nov - 11:49:00 10° W 11:52:15 49° N 11:55:31 10° ENE daylight
02 Nov - 13:25:53 10° WNW 13:29:13 65° NNE 13:32:32 10° E daylight
02 Nov - 15:02:42 10° W 15:05:47 35° SW 15:08:50 10° SSE daylight
03 Nov - 09:22:48 10° SW 09:26:02 50° SSE 09:29:16 10° ENE daylight
03 Nov - 10:59:26 10° W 11:02:43 55° N 11:06:01 10° ENE daylight
03 Nov - 12:36:25 10° WNW 12:39:42 54° N 12:42:59 10° E daylight
03 Nov - 14:13:09 10° WNW 14:16:24 53° SSW 14:19:39 10° SE daylight
03 Nov - 15:51:50 10° WSW 15:52:27 10° SW 15:53:05 10° SW daylight
